Change the Weather History Date:

Sunday, July 14, 2013

  Actual Average Record
Temperature  
Mean Temperature 64 °F 69 °F  
Max Temperature 81 °F 85 °F 104 °F (1953)
Min Temperature 47 °F 54 °F 41 °F (1912)
Degree Days  
Heating Degree Days 1 1  
Month to date heating degree days 3 21  
Since 1 June heating degree days 116 154  
Since 1 July heating degree days 3 21  
Cooling Degree Days 0 5  
Month to date cooling degree days 69 56  
Year to date cooling degree days 119 115  
Since 1 June cooling degree days 112 104  
Growing Degree Days 14 (Base 50)    
Moisture  
Dew Point 51 °F    
Average Humidity 65    
Maximum Humidity 93    
Minimum Humidity 36    
Precipitation  
Precipitation 0.00 in 0.05 in 0.61 in (1927)
Month to date precipitation 1.29 0.90  
Year to date precipitation 12.50 6.82  
Snow  
Snow 0.00 in 0.00 in 0.00 in (2000)
Month to date snowfall 0.0 0.0  
Since 1 June snowfall 0.0 0.0  
Since 1 July snowfall 0.0 0.0  
Snow Depth 0.00 in    
Sea Level Pressure  
Sea Level Pressure 30.11 in    
Wind  
Wind Speed 14 mph (East)    
Max Wind Speed 23 mph    
Max Gust Speed 30 mph    
Visibility 10 miles    
Events      
T = Trace of Precipitation, MM = Missing Value Source: NWS Daily Summary

Daily Weather History Graph

Daily Weather History Graph

Search for Another Location

Airport or City:

Trip Planner

Search our weather history database for the weather conditions in past years. The results will help you decide how hot, cold, wet, or windy it might be!

Date:

Astronomy

Jul. 14, 2013 Rise Set
Actual Time 5:32 AM MDT 9:17 PM MDT
Civil Twilight 4:52 AM MDT 9:57 PM MDT
Nautical Twilight 3:57 AM MDT 10:51 PM MDT
Astronomical Twilight 2:37 AM MDT 12:10 AM MDT
Moon 12:29 PM MDT (7/14) 11:52 PM MDT (7/14)
Length of Visible Light 17h 04m
Length of Day
15h 44m
Waxing Crescent, 35% of the Moon is Illuminated
Jul 14
Waxing Crescent
Jul 15
First Quarter
Jul 22
Full
Jul 29
Last Quarter
Aug 6
New

Hourly Weather History & Observations

Time (MDT) Temp. Heat Index Dew Point Humidity Pressure Visibility Wind Dir Wind Speed Gust Speed Precip Events Conditions
12:53 AM 52.0 °F - 46.9 °F 83% 30.25 in 10.0 mi ENE 9.2 mph - N/A   Clear
1:53 AM 51.1 °F - 46.9 °F 86% 30.24 in 10.0 mi ENE 10.4 mph - N/A   Clear
2:53 AM 50.0 °F - 46.9 °F 89% 30.22 in 10.0 mi East 11.5 mph - N/A   Clear
3:53 AM 48.9 °F - 46.0 °F 90% 30.22 in 10.0 mi ENE 10.4 mph - N/A   Clear
4:53 AM 48.0 °F - 46.0 °F 93% 30.22 in 10.0 mi ENE 12.7 mph - N/A   Clear
5:53 AM 48.0 °F - 46.0 °F 93% 30.21 in 10.0 mi East 10.4 mph - N/A   Clear
6:53 AM 48.9 °F - 46.0 °F 90% 30.21 in 10.0 mi ENE 10.4 mph - N/A   Mostly Cloudy
7:53 AM 53.1 °F - 48.9 °F 86% 30.20 in 10.0 mi East 15.0 mph - N/A   Overcast
8:53 AM 57.0 °F - 51.1 °F 81% 30.21 in 10.0 mi East 17.3 mph 20.7 mph N/A   Mostly Cloudy
9:53 AM 59.0 °F - 51.1 °F 75% 30.21 in 10.0 mi East 15.0 mph - N/A   Partly Cloudy
10:53 AM 63.0 °F - 53.1 °F 70% 30.19 in 10.0 mi East 15.0 mph - N/A   Mostly Cloudy
11:53 AM 66.0 °F - 54.0 °F 65% 30.17 in 10.0 mi East 18.4 mph - N/A   Partly Cloudy
12:53 PM 69.1 °F - 55.9 °F 63% 30.14 in 10.0 mi East 16.1 mph - N/A   Clear
1:53 PM 73.9 °F - 55.0 °F 52% 30.11 in 10.0 mi East 19.6 mph 24.2 mph N/A   Clear
2:53 PM 77.0 °F - 51.1 °F 40% 30.07 in 10.0 mi ESE 21.9 mph 28.8 mph N/A   Clear
3:53 PM 80.1 °F 79.9 °F 53.1 °F 39% 30.04 in 10.0 mi ESE 15.0 mph 24.2 mph N/A   Clear
4:53 PM 81.0 °F - 51.1 °F 35% 30.03 in 10.0 mi SSE 10.4 mph - N/A   Clear
5:53 PM 80.1 °F 80.0 °F 54.0 °F 40% 30.01 in 10.0 mi East 12.7 mph 23.0 mph N/A   Clear
6:53 PM 78.1 °F - 53.1 °F 42% 30.00 in 10.0 mi East 18.4 mph 25.3 mph N/A   Clear
7:53 PM 73.9 °F - 54.0 °F 50% 30.00 in 10.0 mi East 15.0 mph 25.3 mph N/A   Clear
8:53 PM 70.0 °F - 55.0 °F 59% 29.99 in 10.0 mi North - - N/A   Clear
9:53 PM 66.0 °F - 54.0 °F 65% 29.99 in 10.0 mi East 12.7 mph - N/A   Clear
10:53 PM 66.0 °F - 52.0 °F 60% 29.97 in 10.0 mi East 13.8 mph - N/A   Clear
11:53 PM 63.0 °F - 52.0 °F 67% 29.96 in 10.0 mi ENE 18.4 mph 24.2 mph N/A   Clear